Temperature
11 10 10 10 10 10 10 9 9 9 9 9 9 9 9 9 9 9 9 9 9 9 9 9 9 9 9 9 8 8 8 8 8 8 9 9 9 9 9 9 9 9 9
10 10 10 10 10 9 9 9 9 9 9 9 9 9 9 9 9 9 9 9 9 8 8 8 8 8 8 8 8 8 8 8 8 8 8 8 8 8 8 9 9 9 9
10 10 10 9 9 9 9 9 9 9 9 8 8 8 8 8 8 8 8 8 8 8 8 8 8 8 8 8 8 8 8 8 8 8 8 8 8 8 8 8 8 9 9
10 10 9 9 9 9 9 9 8 8 8 8 8 8 8 8 8 8 8 8 8 8 8 8 8 8 8 8 8 8 8 8 8 8 8 8 8 8 8 8 8 8 8
10 9 9 9 9 8 8 8 8 8 8 8 8 8 8 8 8 8 8 8 8 8 8 8 8 8 8 8 8 8 8 8 7 7 8 8 8 8 8 8 8 8 8
9 9 9 9 9 8 8 8 8 8 8 8 8 8 8 8 8 8 8 8 8 8 8 8 8 8 8 7 7 7 7 7 7 8 8 8 8 8 8 8 8 8 8
9 9 9 9 8 8 8 8 8 8 8 8 8 8 8 8 8 8 8 7 7 7 7 7 7 7 7 7 7 7 7 7 7 7 8 8 8 8 8 8 8 8 8
9 9 9 9 8 8 8 8 8 8 8 8 8 8 8 8 8 8 7 7 7 7 7 7 7 7 7 7 7 7 7 7 7 8 8 8 8 8 8 8 8 8 8
9 9 9 9 8 8 8 8 8 8 8 8 8 8 8 8 8 8 7 7 7 7 7 7 7 7 7 7 7 7 7 7 8 8 8 8 8 8 8 8 8 8 8
9 9 9 8 8 8 8 8 8 8 8 8 8 8 8 8 8 8 7 7 7 7 7 7 7 7 7 7 7 7 7 7 7 8 8 8 8 8 8 8 8 8 8
9 9 9 8 8 8 8 8 8 8 8 8 8 8 8 8 8 8 8 7 7 7 7 7 7 7 7 7 7 7 7 7 7 8 8 8 8 8 8 8 8 8 8
9 9 9 8 8 8 8 8 8 8 8 8 8 8 8 8 8 8 8 8 8 8 8 8 8 8 8 8 8 8 7 7 8 8 8 8 8 8 8 8 8 8 8
9 9 9 9 9 8 8 8 8 8 8 8 8 8 8 8 8 8 8 8 8 8 8 8 8 8 8 8 8 8 8 8 8 8 8 8 8 8 8 8 8 8 8
9 9 9 9 9 9 8 8 8 8 8 9 8 8 8 8 8 8 8 8 8 8 8 8 8 8 8 8 8 8 8 8 8 8 8 8 8 8 8 8 8 8 8
9 9 9 9 9 9 9 9 9 9 9 9 9 9 9 9 9 9 9 9 9 9 9 9 9 9 9 9 9 9 9 9 8 8 8 8 8 8 8 9 8 8 8
9 9 9 9 9 9 9 9 9 9 9 9 9 9 9 9 9 9 9 9 9 9 9 9 9 9 9 9 9 9 9 9 9 9 9 9 9 9 9 9 9 9 9
9 9 9 9 9 9 9 9 9 10 10 10 10 10 10 9 9 9 9 9 9 9 9 9 9 9 9 9 9 9 9 9 9 9 9 9 9 9 9 9 9 9 9
10 10 10 10 10 10 10 10 10 10 10 10 10 10 10 10 10 10 10 10 10 10 10 10 10 10 9 9 9 9 9 9 9 9 9 9 9 9 9 9 9 9 9
10 10 10 10 10 10 10 10 10 10 10 10 10 10 10 10 10 10 10 10 10 10 10 10 10 10 10 10 10 10 10 10 10 9 9 9 9 9 9 9 9 9 9
10 10 10 10 10 10 10 10 10 10 10 11 11 11 11 11 11 11 11 11 11 11 11 10 10 10 10 10 10 10 10 10 10 10 10 10 9 9 9 9 9 9 9
10 10 10 10 10 10 10 10 10 11 11 11 11 11 11 11 11 11 11 11 11 11 11 11 11 10 10 10 10 10 10 10 10 10 10 10 10 9 9 9 9 9 9
10 10 10 10 10 10 10 11 11 11 11 11 11 11 11 11 11 11 11 11 11 11 11 11 11 11 11 10 10 10 10 10 10 10 10 10 10 10 9 9 9 9 9
10 11 11 11 11 11 11 11 11 11 11 11 11 11 11 11 11 11 11 11 11 11 11 11 11 11 11 11 11 10 10 10 10 10 10 10 9 9 9 9 9 9 9
11 11 11 11 11 11 11 11 11 11 11 11 11 11 11 11 11 11 11 11 11 11 11 11 11 11 11 11 11 10 10 10 10 10 10 10 9 9 9 9 9 9 9
11 11 11 11 11 11 11 11 11 11 11 11 11 11 11 11 11 11 11 11 11 11 11 11 11 11 11 11 10 10 10 10 10 10 10 10 9 9 9 9 9 9 9
11 11 11 11 11 11 11 11 11 11 11 11 11 11 11 11 11 11 11 11 11 11 11 11 11 11 11 10 10 10 10 10 10 10 10 9 9 9 9 9 9 9 9
Wind_Speed
2 3 3 2 2 3 2 2 2 2 3 3 3 3 3 3 3 3 3 3 3 3 3 2 3 2 1 1 1 1 1 1 2 2 2 2 2 2 3 3 3 3 3
3 3 3 2 3 3 2 2 2 3 3 3 3 3 3 3 3 3 3 3 3 3 4 3 3 2 2 2 1 1 1 2 2 2 2 1 2 2 2 2 3 2 2
3 4 3 2 2 2 2 2 2 2 3 3 3 3 3 4 4 3 3 3 3 3 3 3 4 2 2 2 2 1 1 1 1 2 1 1 1 1 1 2 1 1 1
4 3 2 1 1 1 1 2 2 2 2 3 3 3 3 3 3 3 3 3 4 4 4 3 3 2 2 2 2 1 1 1 1 1 1 1 1 1 0 1 1 1 1
4 3 1 1 1 1 2 2 2 3 3 3 3 3 4 3 3 4 3 3 4 5 5 4 3 3 2 2 2 2 1 1 1 1 1 1 1 1 1 1 1 2 1
4 3 2 2 1 1 2 2 2 3 3 3 4 4 4 4 5 5 3 3 3 4 5 5 4 4 3 3 2 2 2 3 3 2 2 2 3 2 2 1 1 1 1
4 3 2 2 1 0 1 1 1 2 3 3 3 4 4 6 6 6 4 2 3 4 4 4 4 4 4 2 3 2 1 3 5 4 4 4 4 3 3 2 2 2 2
3 3 2 2 1 0 1 1 1 1 2 2 3 4 4 6 7 5 5 2 3 3 4 4 4 5 4 3 2 2 2 2 2 3 5 5 5 4 4 3 2 1 2
3 3 2 2 2 1 0 1 1 1 2 2 3 3 4 6 7 6 4 2 2 4 4 4 4 4 5 3 2 2 3 3 2 2 3 5 5 6 5 3 2 1 1
4 3 2 2 3 2 2 2 1 1 2 3 3 3 4 5 7 7 4 1 2 4 4 4 4 4 5 4 1 1 2 3 3 3 2 2 2 2 4 5 3 2 1
3 3 2 2 2 2 1 1 1 2 2 3 4 4 4 4 6 6 4 1 2 3 4 4 4 6 5 5 2 2 3 3 2 2 2 2 1 1 1 3 4 4 3
3 3 2 2 2 1 1 1 1 1 2 3 4 5 4 4 4 5 5 2 2 2 4 4 5 7 7 5 3 3 3 2 1 1 1 2 2 2 2 2 4 5 6
3 2 2 1 1 1 1 1 1 1 2 3 3 4 5 5 4 5 5 5 3 2 4 7 8 8 7 4 4 4 2 1 1 1 2 2 2 3 2 2 2 2 4
3 2 2 1 1 1 1 2 2 3 3 3 3 4 5 5 5 4 3 3 4 3 4 6 7 6 4 4 4 3 2 2 2 3 3 3 2 2 2 1 1 1 1
3 2 2 1 2 2 2 3 4 5 5 5 4 4 4 5 6 5 4 4 4 4 4 3 3 3 4 4 3 3 2 2 2 2 3 3 2 2 2 2 1 1 2
3 2 2 2 2 2 3 4 5 7 8 10 10 8 6 9 9 9 8 8 7 5 2 2 4 4 4 4 4 4 3 3 3 3 3 3 3 3 3 2 2 3 3
4 3 2 2 2 3 3 3 5 6 5 7 9 10 10 10 10 10 9 8 6 3 2 4 4 5 5 5 4 4 4 4 3 3 3 4 4 4 3 3 3 3 4
4 4 4 3 3 3 4 3 3 4 5 6 6 8 10 10 10 9 7 4 3 2 3 5 5 5 5 5 5 4 4 4 3 4 4 4 4 4 4 4 4 5 5
4 3 3 3 3 3 3 3 3 4 5 5 6 6 6 6 6 6 3 3 4 5 5 5 6 6 6 5 5 5 5 5 5 4 4 5 5 5 5 5 5 6 5
4 5 4 3 3 3 3 3 4 4 5 5 6 6 4 2 3 3 3 4 5 6 6 6 6 6 6 6 5 5 5 5 5 5 5 5 5 5 6 6 6 5 5
4 4 4 3 3 4 4 4 4 4 5 6 6 7 6 4 6 6 6 5 6 7 7 6 6 6 6 6 5 6 6 6 5 5 5 5 5 5 6 6 6 6 6
4 4 3 4 4 4 4 4 4 5 6 7 7 7 7 5 5 6 6 7 7 7 7 6 6 6 6 6 6 6 6 6 6 6 6 5 5 6 6 5 6 6 6
4 4 4 4 4 5 5 4 4 5 6 6 6 6 6 5 6 6 7 7 7 7 7 6 7 7 7 8 8 7 7 8 7 7 6 6 6 6 6 6 7 7 7
5 5 5 4 4 4 4 5 5 5 6 6 6 6 6 6 6 7 7 7 7 7 7 7 7 9 11 9 8 9 10 11 10 8 8 8 7 7 6 6 7 8 8
5 5 5 5 5 5 5 6 6 6 6 6 6 6 7 7 7 7 7 7 7 8 8 8 7 9 11 12 11 10 11 12 12 10 8 7 8 8 8 8 7 7 8
5 6 6 5 5 5 5 6 6 7 7 7 7 7 7 7 7 7 7 6 7 7 8 8 9 10 11 11 12 11 11 11 11 10 8 6 7 7 7 7 9 8 8
Wind_Direction
108 96 85 68 67 69 59 32 22 18 13 12 1 1 3 1 358 1 350 342 338 332 329 312 305 291 286 286 255 223 219 219 247 277 277 292 305 323 350 356 358 1 19
123 105 92 74 65 62 48 28 25 26 14 11 9 12 9 4 358 357 345 346 340 336 333 331 321 321 325 316 290 263 246 229 213 246 283 298 307 308 328 335 345 354 11
126 112 98 81 70 52 32 20 20 23 15 14 17 12 2 358 359 356 350 349 343 332 328 327 317 328 323 314 299 275 259 232 202 204 261 292 305 309 334 334 343 342 0
125 118 115 114 89 35 13 19 23 24 17 9 9 2 354 354 354 355 0 359 350 340 333 325 315 305 283 294 296 273 230 189 177 185 222 268 292 307 316 323 334 338 335
131 132 145 124 90 57 29 24 22 16 9 1 2 359 353 348 346 345 347 352 346 341 341 337 323 317 296 280 273 257 214 199 207 208 225 262 278 266 261 285 296 316 316
143 150 146 119 91 60 34 33 23 7 1 1 355 351 350 342 340 345 339 341 338 338 338 335 337 340 338 330 312 277 218 205 213 221 231 222 235 234 232 220 231 318 303
150 155 152 139 119 74 43 46 17 353 354 347 341 348 340 329 335 340 343 337 331 329 330 334 340 346 350 342 333 329 285 227 212 209 219 224 222 216 205 222 226 244 262
161 167 166 152 157 120 45 8 337 335 338 324 327 333 331 328 336 340 346 351 337 334 329 323 325 329 335 333 334 342 331 302 240 224 226 235 234 225 213 213 213 241 276
177 183 183 168 163 157 310 306 308 324 325 320 315 321 326 323 335 338 346 353 344 333 328 330 329 329 331 345 1 346 338 331 327 272 242 240 240 229 204 182 187 187 287
195 193 179 168 171 195 233 267 288 294 301 314 320 321 315 314 326 336 350 347 336 329 330 329 328 333 336 341 326 311 317 312 326 336 336 322 261 225 196 196 198 200 231
189 173 169 175 186 203 227 264 289 302 314 322 323 321 316 307 318 329 336 332 311 320 324 324 321 331 332 324 293 257 261 275 298 311 324 334 330 288 228 207 206 205 214
160 160 171 189 203 187 195 290 301 304 318 322 325 322 319 312 309 314 320 306 274 283 295 302 304 316 319 316 305 275 269 266 268 299 314 313 299 284 280 269 237 227 231
153 170 188 200 210 199 204 257 297 295 291 302 308 309 311 315 310 309 312 312 297 273 283 292 303 312 316 314 307 300 284 262 256 268 274 274 269 265 273 283 270 241 241
165 190 198 203 247 262 240 235 246 261 272 285 289 292 300 305 305 312 317 316 313 303 302 307 312 315 317 304 306 306 280 240 230 246 260 264 268 270 268 265 259 291 299
177 198 208 216 237 266 271 249 244 248 237 242 260 260 270 287 286 282 287 295 295 293 303 306 319 325 329 330 323 312 296 264 241 241 248 264 272 272 268 249 232 234 249
182 205 218 230 249 259 281 302 273 251 259 247 239 241 251 250 269 284 286 285 288 291 289 294 301 303 302 305 306 305 298 286 271 259 255 255 262 266 270 262 237 238 255
193 213 223 235 249 260 264 279 303 312 290 268 259 255 250 261 269 275 281 290 288 262 247 274 281 286 287 289 286 282 282 283 278 272 266 261 258 258 257 259 257 259 267
200 218 226 238 246 253 258 261 264 281 302 308 295 274 269 267 266 269 276 290 290 257 250 266 276 281 281 282 283 278 278 283 277 273 266 260 253 249 252 257 256 257 266
205 225 235 243 248 248 254 263 268 270 277 289 300 300 288 282 278 272 245 233 266 277 271 269 270 272 274 275 276 274 273 276 275 273 270 264 256 245 249 253 254 251 253
215 230 233 239 254 262 263 269 278 280 284 289 290 289 298 304 293 284 247 248 260 270 272 270 270 269 267 269 270 272 275 275 275 269 265 264 260 246 246 251 252 252 254
220 237 241 242 251 260 265 268 271 275 281 285 284 277 260 263 274 275 271 262 258 263 267 267 267 266 264 262 262 264 268 272 271 269 267 264 262 254 250 249 250 251 255
216 230 237 245 255 262 267 267 270 275 280 284 289 291 275 259 266 270 271 268 262 256 255 257 262 262 259 258 259 260 264 267 268 266 264 263 260 256 251 249 251 253 254
218 233 243 248 253 267 276 278 276 279 282 283 286 292 294 284 278 274 273 272 271 268 261 251 258 267 265 257 252 249 254 259 260 257 256 260 260 260 256 254 256 258 256
221 231 241 251 256 262 270 277 278 279 283 287 289 288 287 283 280 276 276 277 276 275 272 264 260 263 267 268 266 260 257 258 259 256 251 253 257 262 261 257 259 261 262
221 233 242 249 254 260 266 273 280 283 284 285 287 289 290 288 284 281 281 280 278 278 278 274 269 268 271 271 271 271 268 263 259 256 250 250 255 256 258 259 260 264 262
227 235 241 246 250 254 260 268 275 278 281 283 284 285 287 287 285 283 285 285 282 279 277 277 273 272 275 278 277 275 274 272 267 255 246 248 252 257 259 261 264 261 266
Height
1540 1541 1542 1542 1542 1542 1541 1541 1540 1539 1538 1537 1536 1535 1534 1532 1531 1530 1529 1527 1526 1525 1524 1523 1523 1522 1521 1520 1519 1519 1519 1519 1518 1518 1518 1518 1518 1518 1517 1517 1516 1516 1515
1540 1541 1541 1542 1542 1541 1541 1540 1539 1538 1537 1536 1535 1534 1533 1532 1530 1529 1528 1526 1525 1524 1523 1522 1521 1520 1519 1518 1517 1517 1516 1516 1516 1515 1516 1516 1516 1516 1516 1515 1515 1515 1514
1540 1540 1541 1541 1541 1541 1540 1540 1539 1538 1537 1536 1535 1534 1532 1531 1530 1528 1527 1525 1524 1523 1521 1520 1519 1518 1517 1516 1515 1514 1514 1514 1514 1514 1514 1514 1515 1515 1514 1514 1514 1513 1513
1539 1541 1541 1541 1541 1541 1540 1540 1539 1538 1537 1536 1534 1533 1532 1530 1529 1527 1526 1524 1523 1521 1520 1519 1518 1516 1515 1514 1513 1512 1512 1512 1512 1512 1512 1513 1513 1513 1513 1513 1513 1513 1512
1539 1540 1540 1540 1540 1540 1540 1539 1539 1538 1537 1535 1534 1533 1532 1530 1528 1527 1525 1523 1522 1520 1519 1518 1517 1515 1514 1513 1512 1511 1510 1510 1510 1510 1510 1511 1511 1512 1512 1512 1512 1511 1512
1539 1539 1540 1540 1540 1540 1540 1539 1538 1537 1536 1535 1534 1533 1531 1530 1528 1526 1525 1523 1521 1520 1518 1517 1515 1514 1512 1511 1510 1510 1509 1509 1509 1509 1509 1509 1510 1510 1510 1511 1511 1511 1511
1538 1539 1539 1540 1540 1540 1539 1539 1538 1537 1536 1535 1534 1533 1531 1530 1528 1526 1524 1523 1521 1520 1518 1516 1514 1513 1511 1510 1509 1508 1508 1508 1508 1508 1508 1508 1508 1509 1509 1510 1510 1510 1510
1538 1538 1539 1539 1539 1539 1539 1538 1537 1536 1536 1535 1534 1533 1531 1529 1528 1526 1524 1522 1521 1519 1517 1516 1514 1512 1510 1509 1508 1507 1507 1507 1507 1507 1507 1507 1508 1508 1508 1509 1508 1509 1509
1537 1538 1538 1539 1539 1539 1538 1538 1537 1536 1536 1535 1534 1532 1531 1529 1528 1526 1524 1522 1520 1519 1517 1515 1513 1511 1510 1508 1507 1506 1506 1506 1506 1506 1506 1506 1506 1507 1507 1507 1508 1508 1507
1537 1537 1538 1538 1538 1538 1538 1538 1537 1536 1536 1535 1534 1532 1531 1529 1528 1526 1524 1522 1520 1519 1517 1515 1513 1511 1510 1508 1507 1506 1506 1506 1506 1506 1505 1506 1506 1506 1506 1507 1507 1506 1506
1536 1537 1538 1538 1538 1538 1538 1538 1537 1537 1536 1535 1533 1532 1531 1529 1528 1526 1525 1523 1521 1519 1517 1515 1513 1512 1510 1508 1507 1506 1506 1505 1505 1505 1505 1505 1505 1505 1505 1505 1505 1505 1505
1536 1536 1537 1538 1538 1538 1537 1537 1537 1536 1535 1534 1533 1532 1531 1529 1528 1526 1525 1523 1521 1519 1517 1515 1514 1512 1510 1509 1507 1506 1506 1505 1505 1505 1505 1504 1504 1504 1504 1504 1504 1504 1504
1535 1536 1536 1537 1537 1537 1537 1537 1536 1536 1535 1533 1532 1531 1530 1528 1527 1526 1524 1523 1521 1519 1517 1515 1514 1512 1511 1509 1508 1507 1506 1506 1505 1505 1504 1504 1504 1503 1503 1503 1503 1503 1502
1534 1535 1535 1536 1536 1536 1537 1536 1535 1535 1534 1532 1531 1530 1529 1527 1526 1525 1523 1522 1520 1518 1517 1515 1514 1512 1511 1509 1508 1507 1506 1505 1505 1504 1504 1503 1503 1502 1502 1502 1502 1501 1501
1533 1534 1535 1535 1536 1536 1535 1535 1534 1534 1533 1532 1530 1529 1528 1526 1525 1524 1522 1521 1519 1517 1516 1514 1513 1512 1510 1509 1508 1507 1506 1505 1504 1503 1502 1502 1501 1501 1501 1500 1500 1499 1499
1533 1534 1534 1535 1535 1535 1534 1534 1533 1532 1532 1531 1529 1528 1527 1525 1524 1523 1521 1520 1518 1516 1515 1513 1512 1511 1509 1508 1507 1506 1505 1504 1503 1502 1501 1500 1500 1499 1499 1498 1498 1497 1496
1532 1533 1533 1534 1534 1534 1533 1532 1531 1531 1531 1529 1528 1527 1525 1524 1522 1521 1519 1518 1517 1515 1514 1512 1511 1509 1508 1507 1505 1504 1503 1502 1501 1500 1499 1498 1498 1497 1496 1495 1495 1494 1494
1531 1532 1532 1533 1533 1533 1532 1531 1530 1529 1528 1527 1526 1525 1524 1522 1521 1519 1518 1516 1515 1513 1512 1510 1509 1508 1506 1505 1504 1502 1501 1500 1499 1498 1497 1496 1495 1494 1493 1492 1492 1491 1490
1530 1531 1531 1531 1532 1531 1531 1530 1529 1528 1527 1525 1524 1523 1522 1521 1519 1518 1516 1514 1513 1511 1510 1509 1507 1506 1504 1503 1501 1500 1499 1498 1497 1496 1494 1493 1492 1491 1490 1489 1488 1488 1487
1529 1529 1530 1530 1530 1530 1529 1528 1528 1526 1525 1524 1522 1521 1520 1518 1517 1516 1514 1513 1511 1509 1508 1506 1505 1503 1502 1500 1499 1498 1496 1495 1494 1492 1491 1490 1488 1487 1486 1485 1485 1484 1483
1527 1527 1528 1528 1528 1528 1527 1526 1525 1524 1523 1522 1520 1519 1518 1516 1514 1513 1512 1510 1509 1507 1506 1504 1502 1500 1499 1498 1496 1495 1493 1492 1490 1489 1487 1486 1485 1483 1482 1481 1480 1479 1478
1525 1525 1526 1526 1526 1525 1525 1524 1523 1522 1521 1519 1518 1517 1515 1514 1512 1510 1509 1507 1506 1504 1503 1501 1499 1497 1496 1494 1493 1491 1489 1488 1487 1485 1483 1482 1480 1479 1478 1477 1476 1475 1474
1523 1523 1523 1523 1523 1523 1522 1521 1521 1520 1518 1517 1516 1514 1512 1511 1509 1507 1506 1504 1502 1501 1499 1497 1495 1494 1492 1491 1489 1487 1485 1484 1483 1481 1479 1477 1476 1474 1473 1471 1470 1469 1468
1520 1521 1521 1521 1520 1520 1519 1519 1518 1517 1515 1514 1512 1511 1509 1507 1505 1504 1502 1500 1498 1496 1495 1493 1491 1490 1488 1487 1485 1483 1481 1479 1478 1476 1474 1473 1471 1470 1468 1467 1465 1464 1463
1518 1518 1518 1518 1517 1517 1516 1515 1514 1513 1512 1511 1509 1507 1506 1504 1502 1500 1498 1496 1494 1492 1490 1488 1487 1485 1483 1482 1480 1478 1476 1474 1473 1471 1469 1467 1466 1464 1463 1461 1460 1458 1457
1515 1515 1515 1515 1514 1514 1513 1512 1511 1510 1508 1507 1505 1503 1502 1500 1498 1496 1494 1492 1489 1487 1486 1484 1482 1480 1478 1476 1474 1472 1471 1469 1467 1465 1463 1461 1460 1458 1457 1455 1454 1452 1451